Location: Newark
(51.5114°N, 0.0848°W)
Time: 13:36:16
(UTC+00:00)

N. Korean satellite - Visible Passes

Search period start: 19 February 2019 00:00
Search period end: 01 March 2019 00:00
Orbit: 457 x 510 km, 97.2° (Epoch: 18 February)

Date Brightness Start Highest point End Pass type
(mag) Time Alt. Az. Time Alt. Az. Time Alt. Az.
20 Feb 7.4 06:08:41 10° NNE 06:12:08 54° E 06:15:30 10° S visible
20 Feb 10.0 18:24:00 10° SW 18:26:25 17° W 18:28:48 10° NW visible
21 Feb 8.8 05:44:13 10° NE 05:47:16 28° E 05:50:17 10° SSE visible
21 Feb 9.1 17:58:16 10° SSW 18:01:29 29° W 18:04:41 10° NNW visible
22 Feb 9.9 05:20:08 10° NE 05:22:20 16° E 05:24:31 10° SE visible
23 Feb 10.7 18:45:13 10° W 18:45:49 10° W 18:46:24 10° WNW visible
24 Feb 7.7 06:03:10 10° NNE 06:06:32 46° E 06:09:51 10° S visible
24 Feb 9.9 18:18:14 10° SW 18:20:49 18° W 18:23:23 10° NW visible
25 Feb 9.1 05:38:44 10° NE 05:41:39 25° E 05:44:33 10° SSE visible
26 Feb 10.0 05:14:48 10° ENE 05:16:41 14° E 05:18:33 10° ESE visible
27 Feb 10.5 18:38:52 10° WSW 18:40:10 12° W 18:41:27 10° WNW visible
28 Feb 8.1 05:57:36 10° NNE 06:00:54 40° E 06:04:09 10° S visible
28 Feb 9.8 18:12:27 10° SW 18:15:11 20° W 18:17:54 10° NW visible
